Weather Roundup
Issued by NWS

Home | Current Version | Previous Version | Text Only | Print | Product List | Glossary On
Versions: 1 2 3 4 5 6 7 8 9 10 11 12 13 14 15 16 17 18 19 20 21 22 23 24 25 26 27 28 29 30 31 32 33 34 35 36 37 38 39 40 41 42 43 44 45 46 47 48 49 50
000
NZUS93 KARX 270010
HRRWXR

CURRENT HOURLY OBSERVATIONS ACROSS
MUCH OF THE UPPER MISSISSIPPI VALLEY
NATIONAL WEATHER SERVICE LA CROSSE WI
600 PM CST WED NOV 26 2014


...SOUTHEAST MINNESOTA...


CITY           SKY/WX    TMP DP  RH WIND       PRES   REMARKS
ROCHESTER      CLOUDY    24  21  88 N13       30.22R FOG     WCI  12
ROCHESTER/MAYO CLOUDY    25  22  91 NW8       30.23R WCI  16
WINONA         LGT SNOW  28  27  93 NW3       30.24S
AUSTIN         CLOUDY    25  21  86 N10       30.23R WCI  15
ALBERT LEA     CLOUDY    25  23  93 N7        30.24R WCI  17
DODGE CENTER   CLOUDY    25  21  86 N16       30.22R WCI  12
PRESTON        LGT SNOW  22  20  93 N6        30.21R WCI  14
OWATONNA       MOCLDY    25  19  80 N9        30.25R WCI  15
FARIBAULT      CLOUDY    25  19  80 NW6       30.27R WCI  18
$$

...ELSEWHERE IN MINNESOTA...


CITY           SKY/WX    TMP DP  RH WIND       PRES   REMARKS
MINNEAPOLIS    CLOUDY    23  16  74 NW10      30.29R WCI  12
INTNL FALLS    CLEAR     -3  -8  79 NW7       30.38R WCI -16
DULUTH         PTCLDY    11   2  67 NW10      30.26R WCI  -3
RED WING         N/A     27  18  69 N3        30.25S
REDWOOD FALLS  CLOUDY    12   7  80 NW14G22   30.35R WCI  -3
MANKATO        CLOUDY    21  14  73 NW14      30.28R WCI   8
WORTHINGTON    CLOUDY    12   9  85 N15       30.32R WCI  -4
FAIRMONT       CLOUDY    16   9  73 NW20      30.29R WCI  -1
$$

...SOUTHWEST WISCONSIN...


CITY           SKY/WX    TMP DP  RH WIND       PRES   REMARKS
LA CROSSE      LGT SNOW  26  22  84 N10       30.23R FOG     WCI  16
PRAIRIE DU CHI CLOUDY    25  20  81 CALM      30.21S
BOSCOBEL       MOCLDY    21  17  84 CALM      30.22R FOG
LONE ROCK      CLOUDY    22  15  75 CALM      30.20R HAZE
PLATTEVILLE    CLOUDY    23  20  89 CALM      30.19R
FORT MC COY    LGT SNOW  25  22  88 NW6       30.22R WCI  18
CAMP DOUGLAS   CLOUDY    20  20 100 W2        30.19R
VIROQUA        CLOUDY    25  20  83 NW10      30.17R WCI  14
WIS DELLS      PTCLDY    17  15  93 CALM      30.18R FOG
$$

...ELSEWHERE IN WISCONSIN...


CITY           SKY/WX    TMP DP  RH WIND       PRES   REMARKS
MILWAUKEE      CLOUDY    30  20  66 N10       30.14R WCI  21
MADISON        MOCLDY    19  15  84 CALM      30.18R
GREEN BAY      MOCLDY    19  16  88 CALM      30.18S FOG
EAU CLAIRE     CLOUDY    25  18  74 NW7       30.22S WCI  17
BLACK RVR FLS  LGT SNOW  25  24  98 NW5       30.21S WCI  19
MEDFORD        CLOUDY    21  19  91 NW8       30.16R WCI  12
WAUSAU         LGT SNOW  24  21  88 NW5       30.15R FOG     WCI  18
WIS RAPIDS     CLOUDY    23  17  78 NW5       30.19R WCI  17
MARSHFIELD     LGT SNOW  24  20  84 N8        30.16S FOG     WCI  15
RICE LAKE      MOCLDY    22  17  82 NW7       30.25R WCI  13
$$

...NORTHEAST IOWA...


CITY           SKY/WX    TMP DP  RH WIND       PRES   REMARKS
DECORAH        LGT SNOW  25  23  93 N5        30.19R WCI  19
MASON CITY     LGT SNOW  24  22  91 N12       30.24R FOG     WCI  13
CHARLES CITY   LGT SNOW  25  23  93 N5        30.21R WCI  19
OELWEIN        LGT SNOW  27  25  93 N9        30.19R WCI  17
$$

...ELSEWHERE IN IOWA...


CITY           SKY/WX    TMP DP  RH WIND       PRES   REMARKS
DES MOINES     LGT SNOW  31  27  85 N14       30.19R FOG     WCI  21
IOWA CITY      LGT SNOW  28  25  88 NE12      30.18R FOG     WCI  18
FORT DODGE     CLOUDY    25  19  80 NW8G17    30.26R WCI  16
$$

...NORTHERN ILLINOIS...


CITY           SKY/WX    TMP DP  RH WIND       PRES   REMARKS
CHICAGO-OHARE  CLOUDY    29  21  72 CALM      30.12R
CHICAGO-MIDWAY CLOUDY    30  21  69 NE7       30.12S WCI  23
MOLINE         CLOUDY    28  22  78 NE10      30.15R WCI  19
ROCKFORD       CLOUDY    27  19  72 N7        30.16R WCI  19
PEORIA         CLOUDY    30  23  75 NE10      30.11R WCI  21
$$

NOTE: "FAIR" INDICATES FEW OR NO CLOUDS BELOW 12,000 FEET WITH NO
SIGNIFICANT WEATHER AND/OR OBSTRUCTIONS TO VISIBILITY. WIND
SPEEDS ARE IN MILES-PER-HOUR.



USA.gov is the U.S. government's official web portal to all federal, state and local government web resources and services.